Tracking 19242 objects as of 15-Aug-2018
HD Live streaming from Space Station
objects crossing your sky now

AALTO 1

Track AALTO 1 now!
10-day predictions
AALTO 1 is classified as:


NORAD ID: 42775
Int'l Code: 2017-036L
Perigee: 501.4 km
Apogee: 519.6 km
Inclination: 97.4 °
Period: 94.7 minutes
Semi major axis: 6881 km
RCS: Unknown
Launch date: June 23, 2017
Source: (FIN)
Launch site: SRIHARIKOTA (SRI)
Uplink (MHz):
Downlink (MHz): 437.220/2402.000
Beacon (MHz): 437.220
Mode: 9600bps FSK CW
Call sign: OH2A1S
Status: Active

aabbcc
Your satellite tracking list
Your tracking list is empty




NASA's NSSDC Master Catalog

Two Line Element Set (TLE):
1 42775U 17036L   18226.72407463 +.00000551 +00000-0 +28053-4 0  9997
2 42775 097.3955 285.0033 0013228 213.9808 146.0582 15.20833061063399
Source of the keplerian elements: AFSPC